EW3360 Weather Reports


Display with metric or nautical units.
time (UTC)temp
F
wind
direction
speed
MPH
gust
MPH
rain 1hr
in
rain 24hr
in
rain mn
in
humidity
%
barometer
mb
20190519091622 57 10 0.0 0.0 0.00 0.00 0.00 14 1016.9
20190519090105 58 10 0.0 0.0 0.00 0.00 0.00 14 1016.9
20190519084628 58 10 0.0 0.0 0.00 0.00 0.00 15 1017.0
20190519083107 58 10 0.0 0.0 0.00 0.00 0.00 15 1017.0
20190519081600 58 10 0.0 0.0 0.00 0.00 0.00 15 1017.0
20190519080054 58 10 0.0 0.0 0.00 0.00 0.00 16 1017.0
20190519074629 58 10 0.0 0.0 0.00 0.00 0.00 17 1016.9
20190519073049 58 10 0.0 0.0 0.00 0.00 0.00 17 1016.9
20190519071542 58 10 0.0 0.0 0.00 0.00 0.00 18 1016.8
20190519070048 59 10 0.0 0.0 0.00 0.00 0.00 19 1016.9
20190519064604 59 10 0.0 0.0 0.00 0.00 0.00 19 1017.0
20190519063043 59 10 0.0 0.0 0.00 0.00 0.00 20 1017.0
20190519061553 59 10 0.0 0.0 0.00 0.00 0.00 21 1017.0
20190519060032 59 10 0.0 0.0 0.00 0.00 0.00 22 1017.1
20190519054550 59 10 0.0 0.0 0.00 0.00 0.00 24 1017.1
20190519053040 60 10 0.0 0.0 0.00 0.00 0.00 25 1017.1
20190519051522 60 10 0.0 0.0 0.00 0.00 0.00 26 1017.2
20190519050032 60 10 0.0 0.0 0.00 0.00 0.00 28 1017.2
20190519044528 60 10 0.0 0.0 0.00 0.00 0.00 29 1017.1
20190519043019 61 10 0.0 0.0 0.00 0.00 0.00 31 1017.2
20190519041512 61 10 0.0 0.0 0.00 0.00 0.00 33 1017.3
20190519040026 61 10 0.0 0.0 0.00 0.00 0.00 35 1017.1
20190519034511 61 10 0.0 0.0 0.00 0.00 0.00 39 1017.2
20190519033034 62 10 0.0 0.0 0.00 0.00 0.00 41 1017.2
20190519031524 62 10 0.0 0.0 0.00 0.00 0.00 45 1017.2
20190519030048 63 10 0.0 0.0 0.00 0.00 0.00 47 1017.1
20190519024535 63 10 0.0 0.0 0.00 0.00 0.00 50 1017.0
20190519023009 64 10 0.0 0.0 0.00 0.00 0.00 51 1017.0
20190519021534 64 10 0.0 0.0 0.00 0.00 0.00 53 1016.8
20190519020010 64 10 0.0 0.0 0.00 0.00 0.00 54 1016.6
20190519014514 65 10 0.0 0.0 0.00 0.00 0.00 57 1016.5
20190519013010 65 10 0.0 0.0 0.00 0.00 0.00 60 1016.2
20190519011526 66 10 0.0 0.0 0.00 0.00 0.00 63 1016.2
20190519010007 67 10 0.0 0.0 0.00 0.00 0.00 65 1016.0
20190519004505 67 10 0.0 0.0 0.00 0.00 0.00 67 1016.0
20190519003002 68 10 0.0 0.0 0.00 0.00 0.00 68 1016.0
20190519001501 69 10 0.0 0.0 0.00 0.00 0.00 68 1015.7
20190518234838 71 10 0.0 0.0 0.00 0.00 0.00 68 1015.5
20190518233225 72 10 0.0 0.0 0.00 0.00 0.00 70 1015.3
20190518231649 73 10 0.0 0.0 0.00 0.00 0.00 71 1015.1
20190518230140 73 10 0.0 0.0 0.00 0.00 0.00 71 1015.1
20190518224747 73 10 0.0 0.0 0.00 0.00 0.00 71 1014.7
20190518223132 74 10 0.0 0.0 0.00 0.00 0.00 71 1014.8
20190518221623 74 10 0.0 0.0 0.00 0.00 0.00 67 1014.8
20190518220135 75 10 0.0 0.0 0.00 0.00 0.00 68 1014.9
20190518214648 76 11 0.0 0.0 0.00 0.00 0.00 65 1015.1
20190518213146 76 317 0.0 0.0 0.00 0.00 0.00 67 1015.1
20190518211646 77 317 0.0 1.0 0.00 0.00 0.00 59 1015.2
20190518210116 77 27 0.0 2.0 0.00 0.00 0.00 67 1015.0
20190518204632 78 321 0.0 0.0 0.00 0.00 0.00 68 1015.1
20190518203120 78 41 0.0 0.0 0.00 0.00 0.00 67 1015.0
20190518201651 79 41 0.0 0.0 0.00 0.00 0.00 65 1015.1
20190518200134 79 294 0.0 0.0 0.00 0.00 0.00 64 1015.2
20190518194655 80 290 0.0 0.0 0.00 0.00 0.00 65 1015.4
20190518193115 80 5 0.0 0.0 0.00 0.00 0.00 58 1015.5
20190518191742 80 54 0.0 0.0 0.00 0.00 0.00 63 1015.7
20190518190143 80 323 0.0 2.0 0.00 0.00 0.00 59 1016.0
20190518184616 80 307 0.0 0.0 0.00 0.00 0.00 59 1016.2
20190518183103 81 302 0.0 0.0 0.00 0.00 0.00 61 1016.3
20190518181600 80 313 0.0 0.0 0.00 0.00 0.00 57 1016.6
20190518180037 79 312 0.0 0.0 0.00 0.00 0.00 58 1016.6
20190518174619 79 35 0.0 0.0 0.00 0.00 0.00 59 1016.8
20190518173032 79 34 0.0 0.0 0.00 0.00 0.00 61 1017.0
20190518171610 79 355 0.0 0.0 0.00 0.00 0.00 62 1017.2
20190518170104 79 351 0.0 0.0 0.00 0.00 0.00 58 1017.4
20190518164527 78 259 0.0 0.0 0.00 0.00 0.00 70 1017.6
20190518163118 77 314 0.0 0.0 0.00 0.00 0.00 68 1017.8
20190518161602 78 314 0.0 0.0 0.00 0.00 0.00 64 1017.7
20190518160044 77 311 0.0 0.0 0.00 0.00 0.00 63 1018.0
20190518154514 77 320 0.0 0.0 0.00 0.00 0.00 68 1018.1
20190518153033 76 320 0.0 0.0 0.00 0.00 0.00 69 1018.3
20190518151550 76 41 0.0 0.0 0.00 0.00 0.00 68 1018.4
20190518150023 75 272 0.0 0.0 0.00 0.00 0.00 69 1018.5
20190518144512 74 272 0.0 0.0 0.00 0.00 0.00 68 1018.8
20190518143157 72 272 0.0 0.0 0.00 0.00 0.00 65 1018.8
20190518141649 69 272 0.0 0.0 0.00 0.00 0.00 47 1019.0
20190518140154 67 272 0.0 0.0 0.00 0.00 0.00 20 1019.1
20190518134617 63 272 0.0 0.0 0.00 0.03 0.00 21 1019.2
20190518133104 60 272 0.0 0.0 0.00 0.03 0.00 12 1019.1
20190518131626 58 272 0.0 0.0 0.00 0.03 0.00 12 1019.1
20190518130148 57 272 0.0 0.0 0.00 0.03 0.00 11 1019.1
20190518124607 56 272 0.0 0.0 0.00 0.13 0.00 11 1019.1
20190518123109 55 272 0.0 0.0 0.00 0.13 0.00 11 1018.9
20190518121553 54 272 0.0 0.0 0.00 0.13 0.00 12 1018.9
20190518120112 53 272 0.0 0.0 0.00 0.13 0.00 13 1018.6
20190518114553 53 272 0.0 0.0 0.00 0.13 0.00 14 1018.5
20190518113128 53 272 0.0 0.0 0.00 0.13 0.00 15 1018.4
20190518111617 53 272 0.0 0.0 0.00 0.13 0.00 15 1018.2
20190518110040 53 272 0.0 0.0 0.00 0.13 0.00 16 1018.1
20190518104605 53 272 0.0 0.0 0.00 0.13 0.00 16 1017.9
20190518101551 53 272 0.0 0.0 0.00 0.13 0.00 17 1017.8
20190518100032 53 272 0.0 0.0 0.00 0.13 0.00 17 1017.8
20190518094522 53 272 0.0 0.0 0.00 0.13 0.00 17 1017.7
20190518093033 53 272 0.0 0.0 0.00 0.13 0.00 17 1017.6